[[{"header":{"parameterUnit":"m.s-1","parameterCategory":2,"la1":30.2991,"la2":30.254,"lo1":-89.0895,"lo2":-89.0444,"dy":0.0017,"dx":0.0017,"nx":28,"ny":28,"refTime":"2023-09-10T21:00:00:Z","depth":"0","parameterNumber":2,"parameterNumberName":"U-component_of_CURRENTS"},"data":[0,0,0,0,0,0,0,0,0,0,0,0,0,0,0,0,0,0,0,0,0,0,0,0,0,0,0,0,0,0,0,0,0,0,0,0,0,0,0,0,0,0,0,0,0,0,0,0,0,0,0,0,0,0,0,0,0,0,0.228,0.228,0,0.227,0.2269,0.2269,0.2233,0.2232,0.2232,0.2231,0.2218,0.2218,0.2218,0,0,0,0,0,0,0,0,0,0,0,0,0,0.2263,0.2263,0.228,0.228,0.228,0.227,0.2269,0.2269,0.2233,0.2232,0.2232,0.2231,0.2218,0.2218,0.2218,0,0,0,0,0,0,0,0,0,0,0,0,0,0.226,0.2263,0.228,0.2264,0.2262,0.227,0.2269,0.2269,0.2233,0.2232,0.2232,0.2231,0.2218,0.2218,0.2218,0.2235,0,0,0.2219,0.2219,0,0,0,0,0,0,0,0,0.226,0.226,0.2266,0.2265,0.2263,0.2255,0.2259,0.2258,0.2233,0.2241,0.2231,0.223,0.2233,0.2232,0.2227,0.2234,0.2233,0.2219,0.2219,0.2219,0.2219,0,0,0,0,0,0,0,0.2261,0.2261,0.2273,0.2266,0.2265,0.2255,0.2254,0.2258,0.2238,0.224,0.2238,0.2243,0.2231,0.2227,0.2226,0.2233,0.2219,0.2219,0.2219,0.2219,0.2301,0.2303,0,0,0,0,0,0,0.227,0.2261,0.2273,0.2273,0.2264,0.2257,0.2255,0.2256,0.2238,0.2236,0.2243,0.2241,0.2227,0.2226,0.2226,0.2296,0.2219,0.2219,0.2219,0.2299,0.2301,0.2303,0,0,0,0,0,0,0.227,0.2271,0.2273,0.2269,0.2269,0.2258,0.2259,0.2256,0.226,0.2242,0.2238,0.2252,0.2226,0.2225,0.2249,0.2293,0.2219,0.2219,0.2296,0.2299,0.2302,0.2404,0,0,0,0,0,0,0.2269,0.2271,0.2278,0.227,0.227,0.2302,0.226,0.2256,0.2265,0.2262,0.2248,0.2245,0.2225,0.2249,0.2249,0.2292,0.2219,0.2294,0.2298,0.2301,0.2398,0.241,0.242,0,0,0,0,0,0.2268,0.2287,0.2278,0.228,0.2279,0.2304,0.2304,0.229,0.2267,0.2286,0.2273,0.2246,0.2273,0.2251,0.225,0.2295,0.2292,0.2296,0.2301,0.2393,0.2408,0.242,0,0,0,0,0,0,0.228,0.2285,0.2275,0.2292,0.2307,0.2299,0.2319,0.2302,0.2305,0.2303,0.227,0.2269,0.2313,0.2288,0.2264,0.233,0.228,0.2284,0.235,0.2363,0.2374,0.2381,0.222,0,0,0,0,0,0.2287,0.2301,0.2308,0.2322,0.2338,0.2329,0.2336,0.233,0.233,0.233,0.2321,0.2317,0.2331,0.2333,0.2345,0.2374,0.2369,0.2403,0.2414,0.2424,0.2431,0.2491,0.2509,0.2318,0.2318,0.2318,0,0,0.2294,0.2299,0.2305,0.2326,0.2336,0.2374,0.2332,0.236,0.2386,0.2331,0.2369,0.2364,0.2351,0.2393,0.2409,0.2375,0.2472,0.243,0.2438,0.2439,0.2498,0.2517,0.2533,0.2322,0.2321,0.2321,0,0,0.2329,0.2327,0.236,0.2384,0.2413,0.2414,0.2428,0.2439,0.2444,0.2476,0.2451,0.2474,0.2481,0.249,0.249,0.257,0.2539,0.2569,0.2622,0.2682,0.2698,0.2713,0.2712,0.2726,0.2564,0.2564,0.2564,0,0.2337,0.2374,0.2375,0.2424,0.2446,0.2439,0.2485,0.2501,0.2514,0.2521,0.2506,0.2537,0.2534,0.2578,0.2605,0.2599,0.2602,0.257,0.2698,0.2712,0.2725,0.2721,0.2735,0.2569,0.2569,0.2568,0.2568,0,0.2401,0.2438,0.2468,0.2519,0.2545,0.2588,0.2611,0.2635,0.2632,0.2634,0.2681,0.2681,0.2688,0.2702,0.2676,0.2761,0.2723,0.2716,0.2664,0.2751,0.274,0.2753,0.2577,0.2575,0.2574,0.2572,0,0,0.2392,0.2492,0.2499,0.2539,0.2597,0.2621,0.2679,0.2717,0.2736,0.2767,0.2796,0.2839,0.2821,0.2822,0.2804,0.2852,0.2944,0.2821,0.2822,0.282,0.3038,0.2887,0.2884,0.2963,0.2967,0.2969,0.2987,0,0.2439,0.2542,0.2571,0.2656,0.2714,0.2726,0.2771,0.2801,0.2815,0.2847,0.2864,0.2892,0.2873,0.2873,0.2928,0.2945,0.2985,0.2937,0.2954,0.2954,0.281,0.2898,0.2661,0.2647,0.2999,0.3001,0.3002,0,0.249,0.2549,0.2649,0.2722,0.2744,0.2782,0.2825,0.2864,0.2907,0.2915,0.295,0.2952,0.3018,0.2992,0.3081,0.305,0.3055,0.3065,0.3066,0.2899,0.2826,0.2622,0.2656,0.2555,0.3021,0.3019,0.3018,0,0.249,0.2594,0.2669,0.2702,0.2789,0.2811,0.2838,0.2879,0.2905,0.2955,0.2972,0.304,0.3066,0.3124,0.3131,0.3121,0.3213,0.3199,0.3063,0.305,0.2836,0.2798,0.2773,0.3274,0.3274,0.3274,0.3274,0,0.2533,0.2588,0.2672,0.2718,0.277,0.2818,0.286,0.2888,0.2934,0.2963,0.3002,0.3033,0.3109,0.315,0.3165,0.3139,0.3243,0.3084,0.3061,0.2859,0.2825,0.2715,0.2696,0.3274,0.3274,0.3274,0.3274,0,0.2545,0.2606,0.2687,0.2769,0.2784,0.2817,0.2866,0.2895,0.2932,0.2973,0.2992,0.3056,0.3093,0.3127,0.32,0.3152,0.3033,0.3119,0.2839,0.2783,0.253,0.2525,0.2389,0.2341,0.2974,0.297,0.2967,0,0.257,0.2623,0.271,0.2739,0.2776,0.282,0.2847,0.289,0.2915,0.2974,0.2995,0.3036,0.3041,0.3059,0.2971,0.2933,0.2898,0.2696,0.264,0.249,0.2471,0.2403,0.2371,0.2393,0.2386,0.238,0.2375,0,0.2617,0.2645,0.271,0.2753,0.2786,0.2815,0.2851,0.2862,0.2903,0.2921,0.293,0.2938,0.2892,0.2733,0.2658,0.2608,0.2501,0.2569,0.2511,0.2094,0.1923,0.1871,0.2382,0.2322,0.2327,0.2331,0.2334,0.2336,0.2642,0.2672,0.2736,0.2753,0.2785,0.2775,0.2745,0.2773,0.2767,0.2714,0.2813,0.27,0.2527,0.2362,0.231,0.1989,0.212,0.187,0.1899,0.1862,0.1741,0.2101,0.1956,0.1959,0.1962,0.1964,0.1966,0,0.2638,0.2667,0.2718,0.272,0.2697,0.2724,0.2713,0.2632,0.2553,0.2529,0.2487,0.2197,0.198,0.1818,0.1476,0.134,0.1302,0.1286,0.1159,0.119,0.1573,0.147,0.1093,0.1093,0.1093,0.1093,0.1093,0.1093,0.2643,0.2662,0.2659,0.26,0.259,0.2487,0.2437,0.2333,0.2259,0.2014,0.1802,0.173,0.1509,0.1156,0.0888,0.0852,0.0822,0.0676,0.0839,0.1103,0.1161,0.1216,0.1115,0.067,0.067,0.033,0.0327,0.0325]},{"header":{"parameterUnit":"m.s-1","parameterCategory":2,"la1":30.2991,"la2":30.254,"lo1":-89.0895,"lo2":-89.0444,"dy":0.0017,"dx":0.0017,"nx":28,"ny":28,"refTime":"2023-09-10T21:00:00:Z","depth":"0","parameterNumber":3,"parameterNumberName":"V-component_of_CURRENTS"},"data":[0,0,0,0,0,0,0,0,0,0,0,0,0,0,0,0,0,0,0,0,0,0,0,0,0,0,0,0,0,0,0,0,0,0,0,0,0,0,0,0,0,0,0,0,0,0,0,0,0,0,0,0,0,0,0,0,0,0,0.0238,0.0238,0,0.024,0.024,0.024,0.0236,0.0236,0.0236,0.0236,0.0241,0.0241,0.0241,0,0,0,0,0,0,0,0,0,0,0,0,0,0.0219,0.0219,0.0238,0.0238,0.0238,0.024,0.024,0.024,0.0236,0.0236,0.0236,0.0236,0.024,0.0241,0.0241,0,0,0,0,0,0,0,0,0,0,0,0,0,0.0224,0.0219,0.0238,0.0237,0.0237,0.024,0.024,0.024,0.0236,0.0236,0.0236,0.0236,0.024,0.0241,0.0241,0.0244,0,0,0.0242,0.0242,0,0,0,0,0,0,0,0,0.0223,0.0224,0.0237,0.0237,0.0237,0.0238,0.0235,0.0242,0.0236,0.0235,0.0236,0.0235,0.0241,0.0241,0.024,0.0244,0.0244,0.0242,0.0242,0.0242,0.0242,0,0,0,0,0,0,0,0.0223,0.0224,0.0238,0.0237,0.0237,0.0232,0.0233,0.0236,0.0238,0.0235,0.0235,0.0237,0.0241,0.024,0.024,0.0245,0.0242,0.0242,0.0242,0.0242,0.0274,0.0274,0,0,0,0,0,0,0.0225,0.0224,0.0238,0.0238,0.0231,0.0233,0.0234,0.0237,0.0238,0.0238,0.0237,0.0237,0.0239,0.024,0.024,0.0265,0.0242,0.0242,0.0242,0.0273,0.0274,0.0275,0,0,0,0,0,0,0.0225,0.0227,0.0238,0.0231,0.0233,0.0233,0.0238,0.0237,0.0239,0.0239,0.0239,0.0239,0.0239,0.024,0.0247,0.0265,0.0242,0.0243,0.0272,0.0273,0.0274,0.0302,0,0,0,0,0,0,0.0225,0.0227,0.023,0.0232,0.0233,0.0243,0.0238,0.0237,0.0241,0.024,0.0241,0.0241,0.0239,0.0246,0.0247,0.0265,0.0243,0.0272,0.0273,0.0274,0.03,0.0304,0.0307,0,0,0,0,0,0.0224,0.0233,0.023,0.0232,0.0238,0.0243,0.0243,0.0243,0.0241,0.0244,0.0244,0.0242,0.0255,0.0247,0.0248,0.0266,0.0271,0.0272,0.0274,0.0299,0.0303,0.0307,0,0,0,0,0,0,0.0225,0.0233,0.023,0.0241,0.0242,0.0243,0.0249,0.0245,0.0247,0.0249,0.0246,0.0246,0.0262,0.0258,0.0249,0.0279,0.0265,0.0266,0.0283,0.0287,0.0291,0.0308,0.0243,0,0,0,0,0,0.0227,0.0239,0.0239,0.0248,0.025,0.0249,0.0251,0.0249,0.0251,0.0252,0.0253,0.0257,0.0268,0.0272,0.0278,0.029,0.0308,0.0304,0.0307,0.031,0.0326,0.0388,0.0399,0.028,0.028,0.028,0,0,0.0231,0.0237,0.0243,0.0249,0.0252,0.0258,0.025,0.0257,0.0264,0.0253,0.0266,0.0268,0.0274,0.0291,0.0298,0.029,0.0346,0.0312,0.0315,0.0329,0.0391,0.0403,0.0414,0.0281,0.0281,0.028,0,0,0.0244,0.025,0.0261,0.0264,0.0268,0.0268,0.027,0.0271,0.0276,0.0284,0.0284,0.03,0.0304,0.032,0.0328,0.0354,0.0362,0.0351,0.0383,0.0443,0.0454,0.0464,0.047,0.048,0.0352,0.0353,0.0353,0,0.0245,0.0258,0.0264,0.0272,0.0279,0.0274,0.0282,0.0288,0.029,0.0306,0.0292,0.0328,0.0325,0.0366,0.0371,0.0364,0.0383,0.0366,0.045,0.046,0.047,0.0474,0.0485,0.0354,0.0354,0.0354,0.0354,0,0.0262,0.0271,0.028,0.029,0.0299,0.0306,0.0313,0.0325,0.0328,0.0336,0.0374,0.0375,0.0403,0.0401,0.0391,0.0457,0.0441,0.0448,0.0442,0.0484,0.0484,0.0495,0.0356,0.0356,0.0355,0.0355,0,0,0.0267,0.0287,0.0289,0.0299,0.0308,0.0318,0.0341,0.0366,0.0399,0.0401,0.0451,0.046,0.0469,0.0479,0.0476,0.0519,0.0581,0.0512,0.0514,0.0521,0.0685,0.0642,0.0649,0.0612,0.0614,0.0617,0.0646,0,0.0275,0.0293,0.0304,0.0325,0.0335,0.035,0.0378,0.0403,0.0427,0.0475,0.0493,0.0534,0.0497,0.052,0.0556,0.0595,0.0617,0.057,0.0641,0.0642,0.0603,0.0664,0.0673,0.0699,0.0657,0.0658,0.066,0,0.0284,0.0297,0.0314,0.0351,0.036,0.0375,0.0434,0.0459,0.0522,0.0547,0.0591,0.0611,0.0669,0.0634,0.0712,0.0688,0.0684,0.0697,0.0699,0.0664,0.0622,0.0657,0.0721,0.0706,0.0677,0.0675,0.0674,0,0.0282,0.0307,0.0323,0.0331,0.0368,0.0394,0.0422,0.0481,0.053,0.0603,0.0656,0.071,0.0761,0.0789,0.0795,0.0772,0.0877,0.0849,0.0793,0.0787,0.0812,0.0805,0.088,0.0898,0.0898,0.0898,0.0897,0,0.0286,0.0303,0.0324,0.0334,0.0379,0.0402,0.0469,0.0509,0.0588,0.0672,0.0696,0.0782,0.0812,0.0866,0.0845,0.086,0.0916,0.0816,0.0813,0.0815,0.0808,0.0808,0.0794,0.0899,0.0898,0.0898,0.0898,0,0.0291,0.0295,0.0321,0.0359,0.0377,0.0412,0.0497,0.0561,0.0621,0.0737,0.0771,0.0866,0.0943,0.0939,0.0994,0.0933,0.0937,0.0918,0.0885,0.0878,0.0792,0.0779,0.0853,0.0858,0.0871,0.0871,0.087,0,0.03,0.0306,0.0341,0.0373,0.0394,0.045,0.0508,0.0571,0.0648,0.08,0.0871,0.0969,0.1068,0.11,0.1031,0.0986,0.095,0.0912,0.0866,0.0809,0.0793,0.0784,0.0783,0.0894,0.0894,0.0894,0.0894,0,0.0329,0.0332,0.0363,0.0412,0.0464,0.0527,0.061,0.0671,0.0774,0.0883,0.1047,0.1141,0.1173,0.1172,0.1071,0.1016,0.0914,0.0902,0.0893,0.0864,0.0818,0.0813,0.0807,0.0892,0.0892,0.0892,0.0892,0.0893,0.0368,0.0391,0.0424,0.0476,0.0535,0.0611,0.0673,0.0777,0.0904,0.1083,0.1164,0.1307,0.1268,0.1162,0.1087,0.0908,0.0914,0.0843,0.0841,0.0843,0.0834,0.0787,0.0836,0.0836,0.0836,0.0836,0.0836,0,0.0423,0.0445,0.0496,0.0558,0.0627,0.0641,0.0755,0.083,0.0985,0.1158,0.1309,0.1349,0.1304,0.1182,0.0968,0.0874,0.0849,0.0817,0.0835,0.0842,0.0855,0.0841,0.0835,0.0835,0.0835,0.0835,0.0835,0.0835,0.0461,0.0509,0.0523,0.0629,0.0677,0.0765,0.0826,0.0939,0.106,0.1234,0.1309,0.1377,0.1291,0.1068,0.0903,0.0855,0.0836,0.0806,0.0799,0.0817,0.0819,0.0822,0.0808,0.0795,0.0795,0.0805,0.0805,0.0805]}],[{"header":{"parameterUnit":"m.s-1","parameterCategory":2,"la1":30.2991,"la2":30.254,"lo1":-89.0895,"lo2":-89.0444,"dy":0.0017,"dx":0.0017,"nx":28,"ny":28,"refTime":"2023-09-10T21:00:00:Z","depth":"2","parameterNumber":2,"parameterNumberName":"U-component_of_CURRENTS"},"data":[0,0,0,0,0,0,0,0,0,0,0,0,0,0,0,0,0,0,0,0,0,0,0,0,0,0,0,0,0,0,0,0,0,0,0,0,0,0,0,0,0,0,0,0,0,0,0,0,0,0,0,0,0,0,0,0,0,0,0.1691,0.1692,0,0.1701,0.17,0.1699,0.1679,0.1679,0.168,0.168,0.169,0.169,0.169,0,0,0,0,0,0,0,0,0,0,0,0,0,0.1667,0.1667,0.1691,0.1692,0.1693,0.1701,0.17,0.1699,0.1679,0.1679,0.168,0.168,0.169,0.169,0.169,0,0,0,0,0,0,0,0,0,0,0,0,0,0.1669,0.1667,0.1691,0.169,0.1691,0.1701,0.17,0.1699,0.1679,0.1679,0.168,0.168,0.169,0.169,0.169,0.1686,0,0,0.169,0.169,0,0,0,0,0,0,0,0,0.1669,0.1669,0.169,0.1691,0.1691,0.1697,0.1696,0.1698,0.1679,0.1674,0.168,0.168,0.1698,0.1697,0.1686,0.1687,0.1687,0.169,0.1691,0.1691,0.1691,0,0,0,0,0,0,0,0.1669,0.1668,0.1686,0.1691,0.1692,0.1695,0.1694,0.1695,0.1678,0.1675,0.1676,0.1691,0.1697,0.1686,0.1686,0.1687,0.169,0.1691,0.1691,0.1691,0.1684,0.1684,0,0,0,0,0,0,0.1684,0.1668,0.1686,0.1687,0.169,0.1695,0.1694,0.1688,0.1678,0.1679,0.169,0.169,0.1685,0.1686,0.1686,0.1753,0.1691,0.1691,0.1691,0.1684,0.1684,0.1684,0,0,0,0,0,0,0.1683,0.1685,0.1686,0.1686,0.1688,0.1696,0.1689,0.1688,0.1699,0.1691,0.1691,0.1707,0.1685,0.1686,0.1696,0.1751,0.1691,0.1691,0.1685,0.1684,0.1684,0.184,0,0,0,0,0,0,0.1682,0.1684,0.1672,0.1687,0.1689,0.1687,0.1689,0.1688,0.1711,0.1711,0.1705,0.1704,0.1686,0.1696,0.1697,0.175,0.1691,0.1685,0.1684,0.1684,0.1836,0.1845,0.1854,0,0,0,0,0,0.1681,0.1686,0.1671,0.1673,0.1675,0.1687,0.1687,0.1689,0.1712,0.1703,0.171,0.1706,0.1692,0.1697,0.1697,0.1752,0.1685,0.1685,0.1684,0.1832,0.1844,0.1854,0,0,0,0,0,0,0.1689,0.1686,0.1669,0.1676,0.1674,0.1687,0.1698,0.1707,0.1705,0.1719,0.1711,0.171,0.1734,0.1705,0.171,0.1737,0.1685,0.1684,0.1796,0.1807,0.1816,0.1835,0.1691,0,0,0,0,0,0.168,0.1676,0.1672,0.1681,0.1682,0.1692,0.17,0.1704,0.1716,0.1717,0.1729,0.1727,0.1726,0.1739,0.1719,0.1749,0.1743,0.1774,0.1783,0.1792,0.18,0.1873,0.1893,0.1681,0.1681,0.1681,0,0,0.1691,0.1692,0.1689,0.1681,0.1687,0.169,0.1696,0.1721,0.1743,0.172,0.1765,0.176,0.1734,0.1759,0.1768,0.1753,0.1837,0.1791,0.18,0.1803,0.1875,0.1897,0.1916,0.1681,0.1681,0.1681,0,0,0.1712,0.1708,0.1695,0.1695,0.1704,0.1711,0.1726,0.1748,0.177,0.1807,0.1795,0.1836,0.1833,0.1843,0.1843,0.189,0.1875,0.1866,0.1954,0.2026,0.2046,0.2064,0.2052,0.2068,0.1884,0.1885,0.1885,0,0.1716,0.1707,0.1699,0.1693,0.1713,0.1728,0.1737,0.1758,0.1788,0.1822,0.1834,0.1879,0.1884,0.1926,0.1947,0.1924,0.192,0.1931,0.2047,0.2064,0.208,0.2064,0.2079,0.1892,0.1891,0.1891,0.189,0,0.1712,0.1713,0.1726,0.1713,0.1724,0.1751,0.1776,0.1811,0.1868,0.1895,0.1967,0.1989,0.2018,0.2032,0.2019,0.2113,0.2057,0.2052,0.2041,0.2113,0.2088,0.2101,0.1903,0.19,0.1898,0.1896,0,0,0.1717,0.1714,0.1722,0.1725,0.1747,0.1764,0.1817,0.1863,0.1923,0.198,0.2059,0.2117,0.2148,0.2147,0.2148,0.2229,0.2351,0.22,0.22,0.2224,0.2453,0.2312,0.2311,0.238,0.2384,0.2387,0.2383,0,0.1719,0.1715,0.1722,0.1753,0.1761,0.1801,0.1852,0.1902,0.1971,0.2046,0.2114,0.2175,0.2182,0.2224,0.2309,0.235,0.2396,0.2348,0.2347,0.2345,0.2245,0.2327,0.2099,0.2069,0.2396,0.2398,0.2399,0,0.1704,0.1715,0.173,0.1782,0.1793,0.1823,0.1924,0.1969,0.2062,0.2121,0.2204,0.2235,0.2358,0.2351,0.2489,0.2459,0.2459,0.2483,0.2484,0.231,0.223,0.2051,0.208,0.2421,0.2419,0.2417,0.2416,0,0.1704,0.173,0.1753,0.1766,0.1816,0.1864,0.1912,0.2002,0.206,0.2172,0.2225,0.2344,0.2412,0.2497,0.2562,0.254,0.2683,0.2652,0.2496,0.2482,0.2264,0.2225,0.2713,0.2713,0.2713,0.2713,0.2713,0,0.1697,0.1722,0.1762,0.1776,0.1842,0.1879,0.197,0.2032,0.2125,0.2189,0.2266,0.2329,0.2462,0.2544,0.259,0.2598,0.2709,0.2521,0.2497,0.2301,0.2267,0.2551,0.2532,0.2713,0.2713,0.2713,0.2713,0,0.1678,0.1695,0.1737,0.1809,0.1836,0.189,0.1986,0.2057,0.2135,0.222,0.2258,0.2353,0.2458,0.254,0.266,0.2604,0.2649,0.2593,0.2312,0.2255,0.2371,0.236,0.2422,0.2417,0.2413,0.241,0.2408,0,0.1658,0.1672,0.1759,0.1811,0.185,0.1928,0.1993,0.2066,0.2131,0.2226,0.2267,0.2353,0.2367,0.2458,0.2434,0.2439,0.2554,0.2184,0.2103,0.2383,0.2354,0.2349,0.2343,0.1856,0.1849,0.1843,0.1839,0,0.1659,0.1701,0.1754,0.1842,0.1916,0.1966,0.2053,0.2073,0.2156,0.2175,0.2197,0.2194,0.2215,0.2102,0.2086,0.2068,0.2182,0.2059,0.2487,0.1959,0.1849,0.182,0.1834,0.1788,0.1793,0.1797,0.1799,0.1801,0.1706,0.174,0.1828,0.1888,0.1968,0.1997,0.1976,0.2035,0.2034,0.199,0.2056,0.1939,0.1907,0.1741,0.1697,0.1662,0.1811,0.1715,0.1734,0.1758,0.1688,0.1578,0.1448,0.1451,0.1453,0.1455,0.1457,0,0.1762,0.1798,0.1872,0.1926,0.1943,0.2003,0.2012,0.1921,0.1836,0.181,0.1737,0.1476,0.1348,0.1376,0.1205,0.1154,0.1162,0.1124,0.1131,0.118,0.1225,0.113,0.074,0.0738,0.0737,0.0735,0,0,0.1804,0.1852,0.1843,0.186,0.1902,0.1854,0.181,0.1672,0.1587,0.1393,0.1275,0.1275,0.1287,0.0999,0.0941,0.0824,0.1005,0.0776,0.1345,0.1403,0.1446,0.1549,0.1455,0,0,0,0,0]},{"header":{"parameterUnit":"m.s-1","parameterCategory":2,"la1":30.2991,"la2":30.254,"lo1":-89.0895,"lo2":-89.0444,"dy":0.0017,"dx":0.0017,"nx":28,"ny":28,"refTime":"2023-09-10T21:00:00:Z","depth":"2","parameterNumber":3,"parameterNumberName":"V-component_of_CURRENTS"},"data":[0,0,0,0,0,0,0,0,0,0,0,0,0,0,0,0,0,0,0,0,0,0,0,0,0,0,0,0,0,0,0,0,0,0,0,0,0,0,0,0,0,0,0,0,0,0,0,0,0,0,0,0,0,0,0,0,0,0,0.0036,0.0036,0,0.0049,0.0049,0.0049,0.0069,0.007,0.007,0.0071,0.0081,0.0081,0.0081,0,0,0,0,0,0,0,0,0,0,0,0,0,0.0021,0.0021,0.0036,0.0036,0.0036,0.0049,0.0049,0.0049,0.0069,0.007,0.007,0.0071,0.0081,0.0081,0.0081,0,0,0,0,0,0,0,0,0,0,0,0,0,0.003,0.0021,0.0036,0.0048,0.0049,0.0049,0.0049,0.005,0.0069,0.007,0.007,0.0071,0.0081,0.0081,0.0081,0.0068,0,0,0.0081,0.0081,0,0,0,0,0,0,0,0,0.0029,0.003,0.0046,0.0047,0.0049,0.0059,0.0048,0.0056,0.0069,0.0061,0.0071,0.0071,0.0073,0.0074,0.0074,0.0069,0.0069,0.0081,0.0081,0.0081,0.0081,0,0,0,0,0,0,0,0.0029,0.003,0.0041,0.0046,0.0048,0.0051,0.0053,0.005,0.0063,0.0062,0.0064,0.0066,0.0074,0.0075,0.0075,0.007,0.0081,0.0081,0.008,0.008,0.0092,0.0092,0,0,0,0,0,0,0.0028,0.0029,0.004,0.0041,0.0041,0.0051,0.0053,0.0055,0.0064,0.0066,0.0065,0.0066,0.0074,0.0075,0.0075,0.0075,0.0081,0.008,0.008,0.0092,0.0092,0.0093,0,0,0,0,0,0,0.0027,0.0029,0.004,0.0036,0.0038,0.005,0.0052,0.0055,0.0057,0.0066,0.0068,0.0066,0.0075,0.0075,0.0078,0.0075,0.008,0.008,0.0091,0.0092,0.0092,0.0065,0,0,0,0,0,0,0.0027,0.0028,0.003,0.0036,0.0038,0.0044,0.0052,0.0054,0.0058,0.006,0.0067,0.0069,0.0075,0.0078,0.0078,0.0075,0.008,0.0091,0.0092,0.0092,0.0065,0.0064,0.0064,0,0,0,0,0,0.0026,0.003,0.003,0.0031,0.0039,0.0044,0.0046,0.0056,0.0057,0.006,0.0065,0.0069,0.0083,0.0078,0.0078,0.0074,0.009,0.0091,0.0092,0.0066,0.0065,0.0064,0,0,0,0,0,0,0.0026,0.0033,0.0033,0.0039,0.0041,0.0048,0.0054,0.0053,0.0059,0.0061,0.0066,0.0068,0.0073,0.0079,0.0073,0.0083,0.009,0.0091,0.007,0.0069,0.0068,0.0092,0.008,0,0,0,0,0,0.0024,0.0029,0.0033,0.0037,0.004,0.0043,0.0046,0.005,0.0055,0.0058,0.0055,0.0063,0.0075,0.0076,0.0085,0.0081,0.0111,0.0083,0.0082,0.0081,0.0102,0.0162,0.0169,0.0095,0.0095,0.0095,0,0,0.0023,0.0029,0.0031,0.0037,0.0041,0.0048,0.0047,0.0051,0.0056,0.0057,0.0056,0.0058,0.0075,0.0078,0.0081,0.0081,0.0109,0.0082,0.0081,0.0104,0.0164,0.0171,0.0178,0.0096,0.0096,0.0096,0,0,0.0025,0.003,0.0035,0.004,0.0046,0.005,0.005,0.0048,0.0049,0.0044,0.0054,0.0057,0.0056,0.0073,0.0083,0.0084,0.0105,0.0081,0.009,0.0147,0.0154,0.016,0.0167,0.0175,0.0077,0.0077,0.0077,0,0.0023,0.0032,0.0036,0.0044,0.0054,0.0051,0.006,0.0059,0.0054,0.0061,0.0044,0.0064,0.0062,0.0092,0.0089,0.0082,0.0107,0.0086,0.0146,0.0154,0.0161,0.0167,0.0176,0.0075,0.0076,0.0076,0.0076,0,0.0032,0.0039,0.0044,0.0055,0.0064,0.0071,0.0075,0.0073,0.0065,0.0065,0.0078,0.0074,0.0093,0.0082,0.0081,0.0128,0.0123,0.0139,0.0148,0.0167,0.0171,0.0181,0.0074,0.0074,0.0075,0.0075,0,0,0.0034,0.0047,0.005,0.0062,0.0073,0.0085,0.0091,0.0106,0.0126,0.0102,0.013,0.0121,0.0118,0.0132,0.0127,0.0161,0.0201,0.0168,0.0171,0.0172,0.03,0.0269,0.0276,0.0233,0.0236,0.0238,0.0267,0,0.0042,0.0059,0.0065,0.0088,0.0102,0.0109,0.0123,0.0134,0.014,0.0161,0.0157,0.0176,0.0139,0.0146,0.0174,0.0223,0.0233,0.019,0.0285,0.0287,0.0257,0.0289,0.0288,0.0314,0.0277,0.0278,0.028,0,0.0051,0.0067,0.0083,0.0117,0.0126,0.0135,0.0177,0.0186,0.0214,0.0218,0.0232,0.0237,0.0273,0.0238,0.0313,0.0292,0.0288,0.0305,0.0307,0.0306,0.0277,0.0298,0.0333,0.0296,0.0295,0.0293,0.0292,0,0.0058,0.0085,0.01,0.0109,0.0139,0.0151,0.0168,0.0199,0.0228,0.0257,0.029,0.0321,0.0363,0.0381,0.0394,0.0368,0.0483,0.0451,0.0403,0.0398,0.0432,0.0427,0.0488,0.0488,0.0488,0.0488,0.0488,0,0.0069,0.0085,0.0102,0.0112,0.0149,0.0163,0.0202,0.0222,0.0269,0.0347,0.0319,0.0399,0.0412,0.0468,0.0443,0.0469,0.0519,0.0421,0.0423,0.0416,0.0409,0.0431,0.0424,0.0489,0.0489,0.0489,0.0489,0,0.0068,0.0074,0.0099,0.0132,0.0145,0.0168,0.0221,0.0265,0.0296,0.0403,0.0419,0.0493,0.0575,0.0556,0.0615,0.0551,0.0559,0.0535,0.0497,0.0493,0.0409,0.04,0.0488,0.0488,0.0487,0.0487,0.0487,0,0.0067,0.0075,0.011,0.0132,0.0143,0.0179,0.0218,0.0264,0.0333,0.0487,0.0561,0.065,0.0737,0.0759,0.0685,0.0619,0.0594,0.0534,0.0474,0.0425,0.0418,0.041,0.0402,0.0488,0.0488,0.0487,0.0487,0,0.0078,0.008,0.0107,0.0146,0.0185,0.0244,0.0312,0.0377,0.0487,0.06,0.079,0.0867,0.0875,0.084,0.0708,0.0649,0.0543,0.0524,0.0548,0.0478,0.0426,0.0417,0.041,0.0486,0.0486,0.0486,0.0486,0.0486,0.0086,0.011,0.0138,0.0189,0.0232,0.0326,0.0394,0.0511,0.0661,0.0853,0.0933,0.1018,0.0947,0.0773,0.0684,0.0543,0.0548,0.0468,0.0469,0.0471,0.0456,0.0406,0.0456,0.0456,0.0456,0.0456,0.0456,0,0.0117,0.0148,0.0186,0.0261,0.0333,0.034,0.0478,0.0573,0.0782,0.0917,0.1057,0.0963,0.0901,0.0782,0.0581,0.0469,0.0451,0.0418,0.0426,0.0429,0.0432,0.0415,0.0404,0.0403,0.0403,0.0402,0,0,0.0139,0.0194,0.023,0.0357,0.0399,0.0502,0.0587,0.0734,0.0831,0.0975,0.0999,0.103,0.0903,0.0737,0.062,0.051,0.0481,0.0474,0.0529,0.0558,0.0561,0.0478,0.0457,0,0,0,0,0]}],[{"header":{"parameterUnit":"m.s-1","parameterCategory":2,"la1":30.2991,"la2":30.254,"lo1":-89.0895,"lo2":-89.0444,"dy":0.0017,"dx":0.0017,"nx":28,"ny":28,"refTime":"2023-09-10T21:00:00:Z","depth":"4","parameterNumber":2,"parameterNumberName":"U-component_of_CURRENTS"},"data":[0,0,0,0,0,0,0,0,0,0,0,0,0,0,0,0,0,0,0,0,0,0,0,0,0,0,0,0,0,0,0,0,0,0,0,0,0,0,0,0,0,0,0,0,0,0,0,0,0,0,0,0,0,0,0,0,0,0,0.0653,0.0653,0,0.0646,0.0646,0.0646,0.0657,0.0658,0.0658,0.0658,0.07,0.0701,0.0702,0,0,0,0,0,0,0,0,0,0,0,0,0,0.068,0.068,0.0653,0.0653,0.0653,0.0646,0.0646,0.0646,0.0657,0.0658,0.0658,0.0659,0.07,0.0701,0.0702,0,0,0,0,0,0,0,0,0,0,0,0,0,0.067,0.0679,0.0653,0.0658,0.0658,0.0646,0.0646,0.0646,0.0657,0.0658,0.0658,0.0659,0.07,0.0701,0.0702,0.0696,0,0,0.0705,0.0706,0,0,0,0,0,0,0,0,0.0671,0.0669,0.0657,0.0657,0.0658,0.0654,0.0671,0.0665,0.0657,0.0657,0.0658,0.0659,0.0689,0.0691,0.0687,0.0698,0.0699,0.0705,0.0706,0.0706,0.0707,0,0,0,0,0,0,0,0.0671,0.0669,0.065,0.0657,0.0657,0.0663,0.0662,0.067,0.067,0.0657,0.0658,0.0658,0.069,0.0686,0.0688,0.07,0.0705,0.0706,0.0707,0.0707,0.0754,0.0755,0,0,0,0,0,0,0.0672,0.067,0.065,0.0649,0.0667,0.0662,0.0661,0.0654,0.0669,0.0671,0.0657,0.0658,0.0684,0.0687,0.069,0.0726,0.0706,0.0707,0.0708,0.0754,0.0754,0.0755,0,0,0,0,0,0,0.0673,0.067,0.065,0.0661,0.0658,0.0661,0.0653,0.0653,0.0669,0.0669,0.0672,0.0675,0.0684,0.0688,0.0707,0.0727,0.0708,0.0709,0.0753,0.0754,0.0755,0.0772,0,0,0,0,0,0,0.0673,0.067,0.0673,0.066,0.0658,0.0646,0.0652,0.0653,0.0667,0.0669,0.0685,0.0688,0.0685,0.0705,0.0708,0.0728,0.071,0.0752,0.0753,0.0755,0.0771,0.0774,0.0776,0,0,0,0,0,0.0674,0.0669,0.0673,0.0672,0.0659,0.0646,0.0645,0.0649,0.0668,0.0668,0.0683,0.0689,0.0715,0.0706,0.0709,0.073,0.0752,0.0753,0.0754,0.077,0.0773,0.0776,0,0,0,0,0,0,0.0681,0.0669,0.0674,0.0666,0.0661,0.0648,0.0653,0.0661,0.0673,0.0685,0.0692,0.0695,0.0724,0.0722,0.0712,0.0747,0.0736,0.0738,0.0747,0.075,0.0753,0.0735,0.0711,0,0,0,0,0,0.0685,0.0679,0.0669,0.0665,0.0665,0.0667,0.0668,0.0671,0.0675,0.0682,0.0687,0.0703,0.0728,0.0735,0.0747,0.076,0.0781,0.0777,0.0779,0.0782,0.077,0.0856,0.0866,0.076,0.076,0.076,0,0,0.069,0.068,0.068,0.0667,0.0667,0.0653,0.0669,0.0673,0.0664,0.0685,0.0683,0.0716,0.0736,0.0753,0.0765,0.0755,0.0817,0.0783,0.0785,0.0772,0.0859,0.0869,0.0879,0.0761,0.076,0.076,0,0,0.0677,0.0687,0.0673,0.0665,0.0663,0.0661,0.0668,0.0663,0.0668,0.0673,0.0698,0.0738,0.075,0.077,0.0785,0.0808,0.0835,0.0821,0.0813,0.0897,0.0907,0.0916,0.0933,0.0944,0.0815,0.0815,0.0815,0,0.0685,0.0658,0.0668,0.0645,0.0638,0.0666,0.0646,0.0651,0.0651,0.0672,0.0674,0.0736,0.0757,0.0798,0.0804,0.0815,0.0849,0.0801,0.0902,0.0912,0.0921,0.0936,0.0948,0.0816,0.0816,0.0815,0.0815,0,0.0649,0.0633,0.0627,0.0606,0.0603,0.0595,0.0599,0.0606,0.0631,0.0656,0.0707,0.0732,0.0778,0.0793,0.0804,0.0876,0.0874,0.0905,0.0896,0.0933,0.0946,0.0958,0.0817,0.0817,0.0816,0.0816,0,0,0.065,0.0609,0.0609,0.059,0.0583,0.0576,0.0572,0.0591,0.0624,0.0643,0.0686,0.073,0.0785,0.0803,0.0834,0.0887,0.0975,0.0918,0.0923,0.0935,0.1127,0.1019,0.1021,0.1044,0.1047,0.1049,0.1103,0,0.062,0.0565,0.0558,0.0525,0.0498,0.052,0.0522,0.0554,0.0597,0.0648,0.071,0.0777,0.0779,0.0826,0.088,0.0961,0.101,0.0954,0.1088,0.109,0.0993,0.1033,0.1058,0.1111,0.1114,0.1116,0.1117,0,0.0577,0.0548,0.0498,0.0482,0.0481,0.048,0.0513,0.0521,0.0611,0.0655,0.073,0.08,0.0873,0.0888,0.1011,0.0984,0.1054,0.1101,0.1106,0.1004,0.1004,0.1074,0.1138,0.1137,0.1135,0.1134,0.1132,0,0.0541,0.0506,0.0468,0.0456,0.0448,0.0455,0.0476,0.0543,0.0581,0.0683,0.075,0.0839,0.0918,0.1,0.1086,0.1079,0.1221,0.1233,0.1185,0.1177,0.125,0.1241,0.134,0.134,0.134,0.134,0.134,0,0.0483,0.0454,0.046,0.0431,0.044,0.0448,0.0483,0.0522,0.0611,0.0685,0.0774,0.084,0.0968,0.106,0.1109,0.116,0.1249,0.1176,0.1195,0.125,0.124,0.1257,0.1246,0.1342,0.1341,0.1341,0.1341,0,0.0412,0.0411,0.0378,0.0391,0.0409,0.042,0.0483,0.0521,0.0611,0.0703,0.075,0.089,0.0996,0.1079,0.1222,0.1198,0.1253,0.1262,0.1272,0.1291,0.1137,0.1127,0.1194,0.119,0.1188,0.1186,0.1184,0,0.0351,0.0323,0.035,0.0363,0.0371,0.04,0.0431,0.0513,0.0552,0.0717,0.0758,0.0916,0.0994,0.1083,0.1167,0.1223,0.1233,0.1229,0.1201,0.1116,0.1128,0.1122,0.1116,0.118,0.1179,0.1178,0.1178,0,0.024,0.027,0.026,0.03,0.0336,0.0358,0.0405,0.044,0.0546,0.0647,0.0766,0.0853,0.0967,0.1043,0.1104,0.1144,0.1201,0.1202,0.1208,0.1181,0.11,0.1113,0.111,0.1168,0.117,0.1171,0.1171,0,0.0181,0.0174,0.0194,0.0238,0.0278,0.0307,0.0337,0.0398,0.0463,0.0645,0.0682,0.084,0.0962,0.1005,0.1051,0.1078,0.107,0.1033,0.1047,0.1058,0.0988,0.0864,0.0875,0,0,0,0,0,0.0125,0.0125,0.0133,0.0179,0.0219,0.025,0.0316,0.0353,0.047,0.0538,0.0611,0.0711,0.0821,0.0891,0.0897,0.0972,0.1053,0.097,0.1011,0.1118,0.1128,0.1059,0,0,0,0,0,0,0.0097,0.0089,0.0106,0.0122,0.0149,0.0186,0.0231,0.031,0.0339,0.0475,0.054,0.0645,0.0757,0.0819,0.088,0.0898,0.0902,0.1057,0.1054,0.1112,0.1121,0.113,0.1062,0,0,0,0,0]},{"header":{"parameterUnit":"m.s-1","parameterCategory":2,"la1":30.2991,"la2":30.254,"lo1":-89.0895,"lo2":-89.0444,"dy":0.0017,"dx":0.0017,"nx":28,"ny":28,"refTime":"2023-09-10T21:00:00:Z","depth":"4","parameterNumber":3,"parameterNumberName":"V-component_of_CURRENTS"},"data":[0,0,0,0,0,0,0,0,0,0,0,0,0,0,0,0,0,0,0,0,0,0,0,0,0,0,0,0,0,0,0,0,0,0,0,0,0,0,0,0,0,0,0,0,0,0,0,0,0,0,0,0,0,0,0,0,0,0,0.0137,0.0138,0,0.0179,0.018,0.018,0.0199,0.0199,0.0199,0.0199,0.0225,0.0225,0.0226,0,0,0,0,0,0,0,0,0,0,0,0,0,0.0102,0.0102,0.0137,0.0138,0.0138,0.0179,0.018,0.0181,0.0199,0.0199,0.0199,0.0199,0.0224,0.0225,0.0226,0,0,0,0,0,0,0,0,0,0,0,0,0,0.0129,0.0102,0.0137,0.0152,0.0153,0.0179,0.018,0.0181,0.0199,0.0199,0.0199,0.0199,0.0224,0.0225,0.0226,0.0238,0,0,0.023,0.0231,0,0,0,0,0,0,0,0,0.0127,0.013,0.0149,0.0151,0.0153,0.0183,0.0177,0.0199,0.0199,0.0183,0.0199,0.0199,0.0209,0.0211,0.0221,0.0239,0.024,0.023,0.0231,0.0232,0.0232,0,0,0,0,0,0,0,0.0125,0.0128,0.0155,0.015,0.0152,0.0166,0.017,0.0181,0.0197,0.0184,0.0185,0.0189,0.021,0.022,0.0222,0.024,0.023,0.0231,0.0232,0.0233,0.027,0.027,0,0,0,0,0,0,0.0117,0.0127,0.0153,0.0156,0.0138,0.0167,0.0171,0.0174,0.0197,0.02,0.0189,0.019,0.0218,0.022,0.0223,0.0244,0.0232,0.0233,0.0233,0.027,0.027,0.027,0,0,0,0,0,0,0.0116,0.0119,0.0152,0.0142,0.0147,0.0167,0.0171,0.0175,0.0187,0.0201,0.0204,0.0197,0.0218,0.0221,0.0234,0.0244,0.0233,0.0234,0.0269,0.027,0.027,0.0281,0,0,0,0,0,0,0.0115,0.0119,0.0122,0.0141,0.0147,0.0169,0.0172,0.0176,0.0189,0.019,0.0209,0.0211,0.0218,0.0232,0.0235,0.0246,0.0235,0.0269,0.027,0.027,0.0281,0.0282,0.0283,0,0,0,0,0,0.0114,0.0121,0.0122,0.0126,0.015,0.0169,0.0174,0.0189,0.019,0.0198,0.0207,0.021,0.0237,0.0233,0.0237,0.0248,0.0269,0.0269,0.027,0.028,0.0282,0.0283,0,0,0,0,0,0,0.0107,0.0124,0.0126,0.0137,0.0152,0.0172,0.0186,0.019,0.0205,0.0206,0.0215,0.0218,0.0231,0.0238,0.0233,0.026,0.0253,0.0255,0.026,0.0262,0.0263,0.0272,0.0236,0,0,0,0,0,0.0107,0.0116,0.0132,0.0141,0.0151,0.0167,0.0178,0.0185,0.0199,0.0206,0.0217,0.0228,0.0236,0.0247,0.0254,0.0273,0.0263,0.0282,0.0283,0.0284,0.0294,0.0271,0.0271,0.0272,0.0272,0.0272,0,0,0.0105,0.0116,0.0121,0.014,0.0156,0.0182,0.0174,0.0191,0.021,0.0206,0.0235,0.0231,0.024,0.0257,0.0265,0.0266,0.0279,0.0285,0.0286,0.0295,0.0272,0.0272,0.0271,0.0273,0.0273,0.0273,0,0,0.0116,0.012,0.0138,0.0154,0.0175,0.0189,0.0194,0.0214,0.0222,0.0243,0.024,0.024,0.0267,0.027,0.0276,0.029,0.0281,0.0294,0.0317,0.0294,0.0294,0.0294,0.0281,0.0279,0.0301,0.0301,0.0301,0,0.0115,0.0142,0.0145,0.0172,0.0194,0.0195,0.0227,0.0236,0.0255,0.0263,0.0255,0.0272,0.0274,0.029,0.0296,0.0294,0.0282,0.031,0.0295,0.0295,0.0294,0.0281,0.0279,0.0302,0.0302,0.0302,0.0302,0,0.0146,0.017,0.0184,0.0221,0.0242,0.0267,0.0283,0.0293,0.0299,0.0308,0.0315,0.0305,0.0317,0.0312,0.0313,0.0313,0.0306,0.0292,0.029,0.0295,0.0281,0.0279,0.0303,0.0303,0.0302,0.0302,0,0,0.0142,0.0196,0.0203,0.0234,0.0273,0.0294,0.0321,0.035,0.0367,0.0364,0.0378,0.0379,0.0362,0.0367,0.0351,0.0334,0.0315,0.0318,0.0316,0.0304,0.0271,0.0265,0.0261,0.0295,0.0294,0.0294,0.0264,0,0.0172,0.0233,0.0252,0.0313,0.0352,0.0363,0.0393,0.0411,0.0417,0.0425,0.0399,0.0407,0.0386,0.0384,0.0362,0.0325,0.031,0.0325,0.0271,0.027,0.0261,0.0259,0.0293,0.0262,0.0261,0.0261,0.0261,0,0.0207,0.0245,0.0312,0.0372,0.039,0.0423,0.0467,0.0492,0.0496,0.0495,0.0483,0.0459,0.0438,0.0408,0.0353,0.0363,0.0326,0.0292,0.0289,0.028,0.0259,0.0257,0.0256,0.0257,0.0257,0.0257,0.0257,0,0.0225,0.029,0.0348,0.0371,0.0433,0.0461,0.0494,0.0518,0.0544,0.0536,0.0541,0.0503,0.0485,0.0426,0.036,0.0357,0.0287,0.0271,0.0232,0.0231,0.0241,0.0242,0.0233,0.0233,0.0233,0.0233,0.0233,0,0.0262,0.0305,0.0361,0.0397,0.0455,0.0492,0.0546,0.0563,0.059,0.0618,0.058,0.057,0.0488,0.0435,0.0369,0.0295,0.0295,0.024,0.0222,0.0247,0.0249,0.0239,0.0241,0.0232,0.0232,0.0232,0.0233,0,0.028,0.0317,0.0383,0.0452,0.0471,0.0516,0.0587,0.0624,0.0644,0.067,0.067,0.0628,0.0558,0.0473,0.0374,0.0318,0.0239,0.0214,0.0256,0.0241,0.0199,0.0201,0.0171,0.0171,0.017,0.017,0.017,0,0.0298,0.0337,0.0417,0.0447,0.0481,0.0544,0.059,0.0644,0.0675,0.0698,0.0702,0.0656,0.0609,0.0464,0.0374,0.0252,0.0232,0.0196,0.0192,0.0206,0.0192,0.0195,0.0198,0.0169,0.0169,0.0169,0.0169,0,0.0324,0.0354,0.0404,0.0469,0.0524,0.0583,0.0644,0.0669,0.0723,0.0743,0.072,0.0654,0.0575,0.0459,0.0369,0.0277,0.0218,0.0191,0.0192,0.0187,0.0203,0.019,0.0193,0.0167,0.0167,0.0168,0.0168,0,0.033,0.0366,0.0427,0.0482,0.0548,0.0602,0.0636,0.0671,0.0711,0.0733,0.0719,0.0644,0.0604,0.0472,0.0382,0.0298,0.0276,0.0243,0.024,0.024,0.0265,0.0296,0.0277,0,0,0,0,0,0.0333,0.0372,0.0429,0.0493,0.056,0.0597,0.0663,0.0691,0.0731,0.0719,0.0724,0.0648,0.0528,0.047,0.0384,0.037,0.0259,0.0266,0.0218,0.0159,0.0161,0.0177,0,0,0,0,0,0,0.0331,0.0384,0.0426,0.0493,0.0531,0.0608,0.0651,0.068,0.0664,0.0685,0.0615,0.0614,0.0487,0.0569,0.0374,0.0352,0.0308,0.0218,0.0216,0.0158,0.016,0.0161,0.0178,0,0,0,0,0]}]]